• In Schweiz
  • Länderverzeichnis
  • Für 7 Tage
  • Wassertemperatur
  • Satellitenkarten
  • Wetterkarte
  • Widgets
  • user-avatar
    Anmelden

    Stündliche Wetter Mulhule

    Heute, 18 Oktober, Mittwoch

    Zeit Temperatur Niederschläge Wind Luftdruck Luftfeuchtigkeit
    00:00 +34°C° 0 mm 2 m/S 757 mmHg 63%
    01:00 +33°C° 0 mm 1 m/S 756 mmHg 64%
    02:00 +32°C° 0 mm 1 m/S 756 mmHg 65%
    03:00 +32°C° 0 mm 1 m/S 756 mmHg 66%
    04:00 +32°C° 0,1 mm 1 m/S 756 mmHg 67%
    05:00 +32°C° 0,1 mm 1 m/S 757 mmHg 68%
    06:00 +32°C° 0,1 mm 1 m/S 757 mmHg 69%
    07:00 +32°C° 0 mm 1 m/S 757 mmHg 66%
    08:00 +33°C° 0 mm 1 m/S 758 mmHg 63%
    09:00 +35°C° 0 mm 2 m/S 758 mmHg 60%
    10:00 +36°C° 0 mm 2 m/S 757 mmHg 55%
    11:00 +37°C° 0 mm 2 m/S 757 mmHg 50%
    12:00 +38°C° 0 mm 3 m/S 757 mmHg 44%
    13:00 +38°C° 0 mm 3 m/S 756 mmHg 44%
    14:00 +40°C° 0 mm 4 m/S 756 mmHg 43%
    15:00 +40°C° 0 mm 4 m/S 755 mmHg 42%
    16:00 +38°C° 0 mm 4 m/S 755 mmHg 45%
    17:00 +37°C° 0 mm 4 m/S 755 mmHg 48%
    18:00 +36°C° 0 mm 3 m/S 755 mmHg 51%
    19:00 +36°C° 0 mm 3 m/S 756 mmHg 52%
    20:00 +35°C° 0 mm 3 m/S 756 mmHg 53%
    21:00 +35°C° 0 mm 2 m/S 757 mmHg 54%
    22:00 +35°C° 0 mm 2 m/S 757 mmHg 56%
    23:00 +34°C° 0 mm 3 m/S 757 mmHg 57%

    Morgen, 19 Oktober, Donnerstag

    Zeit Temperatur Niederschläge Wind Luftdruck Luftfeuchtigkeit
    00:00 +34°C° 0 mm 3 m/S 757 mmHg 59%
    01:00 +34°C° 0 mm 2 m/S 756 mmHg 59%
    02:00 +34°C° 0 mm 2 m/S 756 mmHg 59%
    03:00 +34°C° 0 mm 2 m/S 756 mmHg 59%
    04:00 +34°C° 0,2 mm 2 m/S 756 mmHg 60%
    05:00 +32°C° 0,2 mm 2 m/S 757 mmHg 61%
    06:00 +32°C° 0,2 mm 2 m/S 757 mmHg 62%
    07:00 +34°C° 0 mm 3 m/S 758 mmHg 59%
    08:00 +35°C° 0 mm 3 m/S 758 mmHg 56%
    09:00 +35°C° 0 mm 3 m/S 759 mmHg 53%
    10:00 +36°C° 0 mm 4 m/S 758 mmHg 49%
    11:00 +37°C° 0 mm 4 m/S 758 mmHg 45%
    12:00 +38°C° 0 mm 4 m/S 758 mmHg 42%
    13:00 +40°C° 0 mm 4 m/S 757 mmHg 41%
    14:00 +40°C° 0 mm 5 m/S 756 mmHg 41%
    15:00 +40°C° 0 mm 5 m/S 756 mmHg 40%
    16:00 +39°C° 0 mm 5 m/S 756 mmHg 44%
    17:00 +37°C° 0 mm 5 m/S 756 mmHg 47%
    18:00 +36°C° 0 mm 5 m/S 756 mmHg 50%
    19:00 +36°C° 0 mm 5 m/S 757 mmHg 52%
    20:00 +35°C° 0 mm 5 m/S 757 mmHg 54%
    21:00 +35°C° 0 mm 4 m/S 758 mmHg 55%
    22:00 +35°C° 0 mm 4 m/S 758 mmHg 56%
    23:00 +34°C° 0 mm 4 m/S 758 mmHg 56%

    übermorgen, 20 Oktober, Freitag

    Zeit Temperatur Niederschläge Wind Luftdruck Luftfeuchtigkeit
    00:00 +34°C° 0 mm 3 m/S 757 mmHg 56%
    01:00 +34°C° 0 mm 3 m/S 757 mmHg 58%
    02:00 +33°C° 0 mm 3 m/S 757 mmHg 59%
    03:00 +33°C° 0 mm 4 m/S 757 mmHg 60%
    04:00 +33°C° 0 mm 3 m/S 757 mmHg 62%
    05:00 +33°C° 0 mm 3 m/S 757 mmHg 63%
    06:00 +31°C° 0 mm 3 m/S 757 mmHg 65%
    07:00 +34°C° 0 mm 3 m/S 758 mmHg 60%
    08:00 +35°C° 0 mm 4 m/S 758 mmHg 55%
    09:00 +36°C° 0 mm 4 m/S 759 mmHg 50%
    10:00 +37°C° 0 mm 4 m/S 758 mmHg 45%
    11:00 +39°C° 0 mm 5 m/S 758 mmHg 41%
    12:00 +40°C° 0 mm 5 m/S 758 mmHg 36%
    13:00 +40°C° 0 mm 5 m/S 757 mmHg 35%
    14:00 +40°C° 0 mm 5 m/S 756 mmHg 34%
    15:00 +41°C° 0 mm 6 m/S 756 mmHg 32%
    16:00 +40°C° 0 mm 6 m/S 756 mmHg 36%
    17:00 +39°C° 0 mm 6 m/S 756 mmHg 39%
    18:00 +38°C° 0 mm 6 m/S 757 mmHg 42%
    19:00 +36°C° 0 mm 6 m/S 757 mmHg 45%
    20:00 +35°C° 0 mm 6 m/S 758 mmHg 49%
    21:00 +35°C° 0 mm 6 m/S 758 mmHg 52%
    22:00 +34°C° 0 mm 5 m/S 758 mmHg 53%
    23:00 +34°C° 0 mm 5 m/S 758 mmHg 54%

    21 Oktober, Samstag

    Zeit Temperatur Niederschläge Wind Luftdruck Luftfeuchtigkeit
    00:00 +34°C° 0 mm 4 m/S 758 mmHg 55%
    01:00 +34°C° 0 mm 4 m/S 757 mmHg 56%
    02:00 +33°C° 0 mm 4 m/S 757 mmHg 57%
    03:00 +33°C° 0 mm 4 m/S 757 mmHg 58%
    04:00 +33°C° 0 mm 4 m/S 757 mmHg 59%
    05:00 +33°C° 0 mm 4 m/S 757 mmHg 60%
    06:00 +32°C° 0 mm 4 m/S 758 mmHg 61%
    07:00 +34°C° 0 mm 4 m/S 758 mmHg 55%
    08:00 +35°C° 0 mm 5 m/S 759 mmHg 49%
    09:00 +36°C° 0 mm 5 m/S 759 mmHg 44%
    10:00 +37°C° 0 mm 5 m/S 758 mmHg 41%
    11:00 +39°C° 0 mm 5 m/S 758 mmHg 38%
    12:00 +40°C° 0 mm 6 m/S 757 mmHg 35%
    13:00 +40°C° 0 mm 6 m/S 757 mmHg 35%
    14:00 +40°C° 0 mm 6 m/S 756 mmHg 35%
    15:00 +40°C° 0 mm 6 m/S 755 mmHg 34%
    16:00 +39°C° 0 mm 6 m/S 756 mmHg 37%
    17:00 +39°C° 0 mm 6 m/S 756 mmHg 40%
    18:00 +37°C° 0 mm 5 m/S 756 mmHg 42%
    19:00 +36°C° 0 mm 5 m/S 757 mmHg 44%
    20:00 +36°C° 0 mm 5 m/S 757 mmHg 46%
    21:00 +35°C° 0 mm 5 m/S 758 mmHg 48%
    22:00 +35°C° 0 mm 5 m/S 758 mmHg 49%
    23:00 +34°C° 0 mm 4 m/S 757 mmHg 50%

    22 Oktober, Sonntag

    Zeit Temperatur Niederschläge Wind Luftdruck Luftfeuchtigkeit
    00:00 +34°C° 0 mm 4 m/S 757 mmHg 51%
    01:00 +34°C° 0 mm 4 m/S 757 mmHg 53%
    02:00 +33°C° 0 mm 4 m/S 757 mmHg 55%
    03:00 +33°C° 0 mm 4 m/S 756 mmHg 56%
    04:00 +33°C° 0 mm 4 m/S 757 mmHg 57%
    05:00 +33°C° 0 mm 4 m/S 757 mmHg 59%
    06:00 +32°C° 0 mm 4 m/S 758 mmHg 60%
    07:00 +34°C° 0 mm 4 m/S 758 mmHg 54%
    08:00 +35°C° 0 mm 5 m/S 758 mmHg 48%
    09:00 +36°C° 0 mm 6 m/S 759 mmHg 43%
    10:00 +38°C° 0 mm 6 m/S 758 mmHg 40%
    11:00 +39°C° 0 mm 6 m/S 757 mmHg 37%
    12:00 +40°C° 0 mm 6 m/S 757 mmHg 34%
    13:00 +40°C° 0 mm 6 m/S 756 mmHg 34%
    14:00 +40°C° 0 mm 6 m/S 756 mmHg 33%
    15:00 +41°C° 0 mm 6 m/S 755 mmHg 33%
    16:00 +40°C° 0 mm 6 m/S 755 mmHg 36%
    17:00 +39°C° 0 mm 6 m/S 756 mmHg 38%
    18:00 +38°C° 0 mm 6 m/S 756 mmHg 40%
    19:00 +36°C° 0 mm 6 m/S 756 mmHg 42%
    20:00 +36°C° 0 mm 6 m/S 757 mmHg 44%
    21:00 +35°C° 0 mm 6 m/S 757 mmHg 46%
    22:00 +35°C° 0 mm 5 m/S 757 mmHg 48%
    23:00 +34°C° 0 mm 5 m/S 756 mmHg 50%

    23 Oktober, Montag

    Zeit Temperatur Niederschläge Wind Luftdruck Luftfeuchtigkeit
    00:00 +34°C° 0 mm 5 m/S 756 mmHg 52%
    01:00 +34°C° 0 mm 5 m/S 756 mmHg 54%
    02:00 +33°C° 0 mm 5 m/S 756 mmHg 55%
    03:00 +33°C° 0 mm 5 m/S 755 mmHg 56%
    04:00 +33°C° 0 mm 5 m/S 756 mmHg 58%
    05:00 +32°C° 0 mm 5 m/S 757 mmHg 60%
    06:00 +32°C° 0 mm 5 m/S 757 mmHg 61%
    07:00 +34°C° 0 mm 6 m/S 757 mmHg 55%
    08:00 +35°C° 0 mm 6 m/S 758 mmHg 49%
    09:00 +36°C° 0 mm 6 m/S 758 mmHg 43%
    10:00 +38°C° 0 mm 7 m/S 757 mmHg 40%
    11:00 +39°C° 0 mm 7 m/S 757 mmHg 36%
    12:00 +40°C° 0 mm 7 m/S 756 mmHg 33%
    13:00 +40°C° 0 mm 7 m/S 756 mmHg 33%
    14:00 +40°C° 0 mm 7 m/S 755 mmHg 32%
    15:00 +40°C° 0 mm 7 m/S 754 mmHg 32%
    16:00 +39°C° 0 mm 7 m/S 755 mmHg 34%
    17:00 +38°C° 0 mm 6 m/S 755 mmHg 37%
    18:00 +36°C° 0 mm 6 m/S 755 mmHg 39%
    19:00 +36°C° 0 mm 6 m/S 756 mmHg 41%
    20:00 +36°C° 0 mm 6 m/S 756 mmHg 42%
    21:00 +35°C° 0 mm 7 m/S 757 mmHg 44%
    22:00 +35°C° 0 mm 6 m/S 757 mmHg 47%
    23:00 +34°C° 0 mm 6 m/S 756 mmHg 49%
    Mehr zeigen